Location: Fasanenhof
(48.7107°N, 9.1590°E)
Time: 02:06:28
(UTC+00:00)

ISS - Visible Passes

Search period start: 11 December 2025 00:00
Search period end: 21 December 2025 00:00
Orbit: 416 x 420 km, 51.6° (Epoch: 10 December)

Date Brightness Start Highest point End Pass type
(mag) Time Alt. Az. Time Alt. Az. Time Alt. Az.
11 Dec -0.5 06:14:18 10° S 06:16:16 15° SE 06:18:14 10° E visible
13 Dec -1.7 06:13:47 10° SSW 06:16:49 32° SE 06:19:52 10° E visible
14 Dec -1.2 05:26:21 10° SSW 05:28:58 21° SE 05:31:38 10° E visible
15 Dec -0.8 04:39:16 10° S 04:41:09 14° SE 04:43:03 10° ESE visible
15 Dec -3.4 06:14:05 10° WSW 06:17:26 67° SSE 06:20:48 10° ENE visible
16 Dec -2.8 05:26:40 13° SW 05:29:26 46° SSE 05:32:42 10° ENE visible
17 Dec -2.2 04:41:14 30° SSE 04:41:28 31° SE 04:44:30 10° E visible
17 Dec -3.8 06:14:42 10° WSW 06:18:04 71° NNW 06:21:27 10° ENE visible
18 Dec -0.4 03:55:32 13° E 03:55:32 13° E 03:56:07 10° E visible
18 Dec -3.8 05:28:30 32° WSW 05:29:57 89° SSE 05:33:20 10° ENE visible
19 Dec -2.7 04:42:36 46° E 04:42:36 46° E 04:45:11 10° ENE visible
19 Dec -3.5 06:15:33 11° W 06:18:41 52° N 06:22:00 10° ENE visible
20 Dec -0.4 03:56:35 12° ENE 03:56:35 12° ENE 03:56:57 10° ENE visible
20 Dec -3.6 05:29:31 40° WNW 05:30:28 59° NNW 05:33:48 10° ENE visible
